IRIDIUM 29

Satellite information

Favourite Embed

Satellite Type and Status

PAYLOADIN ORBIT

Key statistics

Satellite IRIDIUM 29 at a glance.

Uptime

10317

Days in orbit

Revolutions

≈ 14.4

Per day

Orbit

LEO

Low Earth Orbit

Inclination

86.4

Latest

Satellite identification and parameters

Extended collection of information and parameters for IRIDIUM 29.

Object identification

Identified? True

Debris? False

Object name: IRIDIUM 29

International designator: 1997-051A

Object number (NORAD): 24944

Object ID (CCSDS): 24944

Country: UNITED STATES OF AMERICA (US)

Current information (Y/N): Y

RCS size: LARGE

Orbital parameters

Period: 100.232 minutes

Inclination: 86.3953 deg

SMA: 7147.684 km

Apoapsis: 771.186 km

Periapsis: 767.912 km

RAAN: 69.1501 deg

Eccentricy: 0.00022904

Argument of periapsis: 92.7776 deg

Mean anomaly: 267.3683 deg

Mean motion: 14.36662452 rev/day

Mean motion (dot): 0.00000681 rev/day2

B* drag term: 0.00022493356 1/REarth

Two-line elements (TLE)

Creation date: Dec. 12, 2025, 10:14 a.m.

Reference frame: TEME

Reference center: EARTH

Epoch: Dec. 12, 2025, 5:56 a.m. UTC

TLE line 0: 0 IRIDIUM 29

TLE line 1: 1 24944U 97051A 25346.24789956 .00000681 00000-0 22493-3 0 9993

TLE line 2: 2 24944 86.3953 69.1501 0002290 92.7776 267.3683 14.36662452478836

Live tracking on map

Real-time ground track for satellite IRIDIUM 29.

In-orbit conjunctions

A list of the most updated potential collisions computed for object IRIDIUM 29.

Target Orbit TCA Probability of collision Miss distance Type
CZ-6A DEB SSO 2025-11-14 05:34:44 0.0002596393 226.0 (m) DEBRIS
COSMOS 2251 DEB LEO 2025-07-12 11:22:21 0.0002223023 169.0 (m) DEBRIS
CZ-6A DEB SSO 2025-04-24 00:05:05 0.0006978004 234.0 (m) DEBRIS
FENGYUN 1C DEB SSO 2025-03-07 10:49:56 0.0007198399 110.0 (m) DEBRIS
COSMOS 2251 DEB LEO 2025-02-25 16:14:02 0.0003546407 526.0 (m) DEBRIS

Associated space launch

Iridium provides global mobile telecommunications services using a constellation of 66 low earth orbit satellites in a 86.4° inclined orbit. Although 77 satellites were originally envisioned for the system and spawned the name based on the 77th element in the periodic table, the system has been scaled back. Motorola's Satellite Communications Group designed and manufactured the Iridium satellites with Lockheed Martin providing the LM-700A spacecraft buses.

IRIDIUM 29 was lifted into orbit during the mission ‘Proton-K/17S40 | Iridium 27 to 33’, on board a Proton-K/17S40 space rocket.

The launch took place on Sept. 14, 1997, 1:36 a.m. from 81/23 (81L).

For more information about the launch, click the button.

Launch to space Proton-K/17S40 | Iridium 27 to 33
Proton-K/17S40 | Iridium 27 to 33

Agency: N/A

Status: Launch Successful

Launch date: Sept. 14, 1997, 1:36 a.m. UTC

Rocket: Proton-K/17S40

Launch pad: 81/23 (81L)

Location: Baikonur Cosmodrome, Republic of Kazakhstan

...

Latest news about this satellite

There are no fresh news available about this satellite. Check back as we update our databases every day.


Newsletter sign-up

Weekly statistics, charts and insights to help you stay on top of the space industry.